Home > Weather > Wailuku > Past weeks

Flag for USA Past Weather in Wailuku, Hawaii, USA — Yesterday and Last 2 Weeks

Now
68 °F

Clear.


Feels Like: 68 °F
Forecast: 72 / 84 °F
Wind: 7 mph from Southeast

Location: Kahului Airport

Current Time: May 25, 2016 at 3:05:06 AM

Latest Report: May 25, 2016 at 1:54 AM


Visibility: 10 mi

Pressure: 30.03 "Hg

Humidity: 96%

Dew Point: 67 °F

Location of WailukuLocation

Past Weather in Wailuku — Graph

°F

Wailuku Temperature Yesterday

Maximum temperature yesterday: 87 °F (at 12:54 PM)
Minimum temperature yesterday: 65 °F (at 5:54 AM)
Average temperature yesterday: 76 °F

High & Low Weather Summary for the Past Weeks

 TemperatureHumidityPressure
High88 °F (May 15, 10:54 AM)100% (May 10, 1:40 PM)30.14 "Hg (May 10, 1:40 PM)
Low65 °F (May 24, 5:54 AM)48% (May 17, 11:54 AM)29.95 "Hg (May 12, 3:54 PM)
Average76 °F75%30.04 "Hg
* Reported May 10 12:11 AM — May 25 12:54 AM, Wailuku, Weather by CustomWeather, © 2016

Note: Actual official high and low records may vary slightly from our data, if they occured in-between our weather recording intervals... More about our weather records

Advertising

Wailuku Weather History for the Previous 24 Hours

Scroll right to see more
 ConditionsComfort  
Time TempWeatherWind HumidityBarometerVisibility
12:54 AM
Wed, May 25
69 °FPassing clouds.3 mph93%30.04 "Hg10 mi
11:54 PM
Tue, May 24
70 °FPassing clouds.No wind93%30.06 "Hg10 mi
10:54 PM72 °FPassing clouds.12 mph87%30.07 "Hg10 mi
9:54 PM72 °FPassing clouds.7 mph84%30.07 "Hg10 mi
8:54 PM73 °FPartly cloudy.15 mph88%30.06 "Hg10 mi
7:54 PM73 °FPassing clouds.7 mph88%30.05 "Hg10 mi
6:54 PM73 °FLight rain. Broken clouds.No wind90%30.05 "Hg8 mi
5:54 PM74 °FBroken clouds.14 mph91%30.02 "Hg10 mi
4:54 PM75 °FLight rain. Broken clouds.15 mph88%30.01 "Hg10 mi
3:54 PM80 °FBroken clouds.22 mph71%30.01 "Hg9 mi
2:54 PM84 °FScattered clouds.22 mph57%30.01 "Hg10 mi
1:54 PM86 °FScattered clouds.23 mph55%30.02 "Hg10 mi
12:54 PM87 °FScattered clouds.20 mph50%30.04 "Hg10 mi
11:54 AM85 °FScattered clouds.17 mph55%30.06 "Hg10 mi
10:54 AM85 °FScattered clouds.17 mph50%30.07 "Hg10 mi
9:54 AM84 °FPassing clouds.16 mph53%30.07 "Hg10 mi
8:54 AM81 °FPassing clouds.10 mph56%30.09 "Hg10 mi
7:54 AM79 °FScattered clouds.9 mph65%30.08 "Hg10 mi
6:54 AM73 °FScattered clouds.10 mph81%30.08 "Hg10 mi
5:54 AM65 °FPassing clouds.No wind91%30.06 "Hg10 mi
4:54 AM66 °FClear.7 mph87%30.06 "Hg10 mi
3:54 AM66 °FClear.3 mph90%30.05 "Hg10 mi
Weather by CustomWeather, © 2016

See weather overviewHow to use our weather pages